Regional Weather Roundup
Issued by NWS

Home | Current Version | Previous Version | Text Only | Print | Product List | Glossary On
Versions: 1 2 3 4 5 6 7 8 9 10 11 12 13 14 15 16 17 18 19 20 21 22 23 24 25 26
000
ASUS45 KPSR 271110
RWRAZ

ARIZONA HOURLY REGIONAL WEATHER ROUNDUP
NATIONAL WEATHER SERVICE PHOENIX AZ
400 AM MST FRI MAY 27 2016

NOTE: FAIR INDICATES FEW OR NO CLOUDS BELOW 12,000 FEET WITH NO
SIGNIFICANT WEATHER AND/OR OBSTRUCTIONS TO VISIBILITY.

AZZ001>003-036-271200-
NORTHWEST ARIZONA

CITY           SKY/WX    TMP DP  RH WIND       PRES   REMARKS
BULLHEAD CITY  CLEAR     72  32  23 CALM      29.82R
KINGMAN        CLEAR     53  28  38 CALM      29.92S
$$

AZZ004>008-015-016-018-271200-
NORTH CENTRAL ARIZONA

CITY           SKY/WX    TMP DP  RH WIND       PRES   REMARKS
GRAND CANYON   CLEAR     29  22  75 CALM      30.05F
WILLIAMS       CLEAR     32  25  74 S7        30.12S WCI  26
PRESCOTT       CLEAR     48  27  44 S8        30.00S
FLAGSTAFF      CLEAR     32  27  81 SW5       30.06S WCI  27
PAYSON         CLEAR     48  27  43 CALM      30.02S
PAGE           CLEAR     59  35  40 NW3       29.92S
$$

AZZ009>014-017-271200-
NORTHEAST ARIZONA

CITY           SKY/WX    TMP DP  RH WIND       PRES   REMARKS
WINSLOW        CLEAR     48  27  44 CALM      29.98R
SAINT JOHNS    CLEAR     45  26  47 SW3       29.99R
WINDOW ROCK    CLEAR     43  29  57 CALM      30.00S
SHOW LOW       CLEAR     41  25  52 S8        30.04S
$$

AZZ023-271200-
GREATER PHOENIX AREA

CITY           SKY/WX    TMP DP  RH WIND       PRES   REMARKS
PHOENIX        CLEAR     69  37  30 E5        29.82S
BUCKEYE        CLEAR     66  32  28 W5        29.85S
LUKE AFB       CLEAR     66  37  34 W1        29.82S
DEER VALLEY    CLEAR     63  30  28 E7        29.84S
SCOTTSDALE     CLEAR     67  35  30 CALM      29.86R
MESA-GATEWAY   CLEAR     61  32  33 SE7       29.86S
$$

AZZ027-028-271200-
SOUTHWEST MARICOPA COUNTY AND PINAL COUNTY

CITY           SKY/WX    TMP DP  RH WIND       PRES   REMARKS
CASA GRANDE    CLEAR     59  23  25 CALM      29.86S
GILA BEND      FAIR      64  30  28 NW3       29.83R
$$

AZZ503-504-507>509-271200-
SOUTHEAST ARIZONA

CITY           SKY/WX    TMP DP  RH WIND       PRES   REMARKS
TUCSON         CLEAR     60  26  27 SE8       29.93S
DAVIS-MONTHAN  CLEAR     57  26  30 S5        29.92S
NOGALES        CLEAR     49  25  39 E6        29.96F
SIERRA VISTA   CLEAR     53  23  31 SW7       30.00F
DOUGLAS        CLEAR     44  18  35 CALM      29.98S
SAFFORD        CLEAR     55  23  28 SW5       29.91R
$$

AZZ020-021-025-026-031-271200-
SOUTHWEST ARIZONA

CITY           SKY/WX    TMP DP  RH WIND       PRES   REMARKS
YUMA           CLEAR     67  47  48 W3        29.81S
$$

CAZ031-033-041-043-047-048-061-271200-
SOUTHERN CALIFORNIA

CITY           SKY/WX    TMP DP  RH WIND       PRES   REMARKS
DOWNTOWN L.A.  CLEAR     59  53  80 CALM      29.94F
L.A. AIRPORT   PTCLDY    59  54  83 CALM      29.95F
SAN DIEGO      CLOUDY    64  55  72 NW6       29.97S
BURBANK        CLEAR     56  49  77 CALM      29.94F
ONTARIO        CLEAR     55  50  83 W5        29.95S
RIVERSIDE      PTCLDY    57  51  80 CALM      29.96S
PALM SPRINGS     N/A    N/A N/A N/A MISG      29.83S
EL CENTRO NAS  CLEAR     68  44  42 W8        29.81S
IMPERIAL       CLEAR     67  46  47 CALM      29.79S
BLYTHE         CLEAR     72  47  40 SW8       29.80S
NEEDLES        CLEAR     75  32  20 NW3       29.80R
$$

NVZ020-UTZ003-271200-
SOUTHERN NEVADA-UTAH

CITY           SKY/WX    TMP DP  RH WIND       PRES   REMARKS
LAS VEGAS      PTCLDY    71  36  27 N3        29.81R
SALT LAKE CITY PTCLDY    56  41  57 SE8       29.94F
$$

NMZ009-TXZ055-271200-
NEW MEXICO-WEST TEXAS

CITY           SKY/WX    TMP DP  RH WIND       PRES   REMARKS
ALBUQUERQUE    PTCLDY    46  22  38 SE8       29.92R
EL PASO        CLEAR     61  19  19 VRB3      29.91R
$$


........................KEY........................
SKY/WX - SKY CONDITION/WEATHER
TMP    - TEMPERATURE IN FAHRENHEIT
DP     - DEW POINT IN FAHRENHEIT
RH     - RELATIVE HUMIDITY IN PERCENT
WIND   - DIRECTION AND SPEED IN MILES PER HOUR (MPH)
VRB    - VARIABLE WIND DIRECTION
PRES   - MEAN SEA LEVEL PRESSURE IN INCHES OF MERCURY
         F - FALLING PRESSURE   R - RISING PRESSURE
         S - STEADY PRESSURE
VSB    - VISIBILITY IN MILES
HX     - HEAT INDEX IN FAHRENHEIT
WCI    - WIND CHILL INDEX IN FAHRENHEIT
TC     - TEMPERATURE IN CELSIUS WHICH IS ALSO KNOWN AS
         TEMPERATURE IN CENTIGRADE
AFB    - AIR FORCE BASE
         LUKE AFB IS LUKE AIR FORCE BASE
         DAVIS-MONTHAN IS DAVIS-MONTHAN AIR FORCE BASE
NAS    - NAVAL AIR STATION
         EL CENTRO NAS IS EL CENTRO NAVAL AIR STATION
N/A    - NOT AVAILABLE





USA.gov is the U.S. government's official web portal to all federal, state and local government web resources and services.